Location: ??????
(55.6500°N, 37.8000°E)
Time: 22:56:49
(UTC+00:00)

COSMOS 2251 DEB - Visible Passes

Search period start: 15 September 2024 00:00
Search period end: 25 September 2024 00:00
Orbit: 724 x 894 km, 74.3° (Epoch: 08 September)

Date Brightness Start Highest point End Pass type
(mag) Time Alt. Az. Time Alt. Az. Time Alt. Az.
18 Sep ? 16:38:49 10° WNW 16:40:46 12° W 16:42:43 10° WSW visible
19 Sep ? 16:13:00 10° WNW 16:16:07 15° W 16:19:16 10° WSW visible
23 Sep ? 02:28:12 10° ESE 02:29:48 11° E 02:31:24 10° ENE visible
